User: anonymous   Login
Location: Unspecified
(0.0000°N, 0.0000°E)
Time: 21:46:00
(UTC+02:00)
Language:

Cosmos 1538 Rocket - Orbit

View from above orbital plane
View from above orbital plane
View from above satellite
View from above satellite

Ground track
Ground track

The orbit data is extracted from the following two-line orbital elements,

1 14760U 84019B   16120.50942426  .00000102  00000-0  44106-4 0  9994
2 14760  74.0425 160.6886 0026836 123.5079 339.4473 14.35766623684216
Epoch (UTC): 29 April 2016 12:13:34
Eccentricity: 0.0026836
inclination: 74.0425°
perigee height: 753 km
apogee height: 792 km
right ascension of ascending node: 160.6886°
argument of perigee: 123.5079°
revolutions per day: 14.35766623
mean anomaly at epoch: 339.4473°
orbit number at epoch: 68421

The dashed part of the orbit path shows where the satellite is in the earth's shadow,  

DLR